Temp
-13 -11 -10 -10 -9 -9 -9 -9 -9 -9 -9 -9 -10 -10 -11 -12 -12 -12 -13 -13 -13 -12 -12 -12 -12 -12 -12 -12 -12 -11 -11 -10 -10 -10 -10 -9 -8 -7 -6 -6 -6 -5 -5 -6 -7 -7 -6 -5 -5 -4 -5 -4 -4 -3
-14 -13 -11 -11 -10 -10 -9 -9 -9 -9 -9 -10 -10 -11 -11 -12 -12 -11 -12 -12 -13 -12 -11 -11 -12 -12 -12 -12 -12 -11 -11 -11 -11 -11 -11 -10 -9 -8 -7 -6 -6 -6 -6 -6 -6 -6 -5 -5 -5 -5 -5 -5 -5 -5
-14 -14 -13 -12 -11 -10 -10 -10 -10 -10 -10 -10 -10 -11 -11 -11 -12 -12 -11 -12 -12 -12 -11 -11 -11 -11 -11 -11 -12 -10 -11 -11 -11 -11 -11 -10 -9 -9 -8 -7 -8 -7 -6 -6 -6 -6 -6 -6 -5 -6 -5 -6 -6 -5
-14 -14 -13 -13 -13 -12 -11 -10 -10 -10 -10 -10 -11 -11 -11 -11 -12 -12 -11 -12 -12 -12 -12 -10 -11 -11 -11 -11 -11 -11 -11 -11 -11 -11 -10 -10 -10 -9 -8 -8 -8 -7 -7 -7 -7 -6 -6 -6 -7 -6 -6 -6 -6 -5
-15 -14 -13 -13 -13 -12 -12 -11 -10 -11 -11 -11 -11 -11 -11 -11 -11 -12 -12 -12 -12 -12 -12 -11 -11 -11 -11 -11 -11 -11 -11 -11 -11 -11 -10 -10 -10 -9 -9 -8 -8 -8 -8 -8 -7 -7 -7 -7 -7 -7 -7 -6 -6 -6
-14 -15 -15 -13 -13 -12 -11 -11 -11 -11 -11 -11 -11 -11 -11 -11 -11 -12 -12 -11 -12 -11 -11 -12 -11 -11 -12 -11 -11 -11 -11 -11 -11 -11 -10 -10 -10 -10 -9 -8 -8 -9 -8 -8 -8 -7 -7 -7 -7 -8 -8 -7 -7 -7
-15 -15 -14 -13 -13 -12 -12 -11 -11 -11 -11 -11 -11 -11 -11 -11 -11 -11 -11 -11 -11 -11 -12 -12 -12 -11 -12 -11 -11 -11 -11 -11 -11 -11 -10 -10 -9 -10 -9 -9 -8 -9 -9 -8 -8 -8 -7 -7 -7 -8 -7 -7 -7 -7
-15 -15 -15 -15 -14 -12 -12 -11 -11 -11 -11 -11 -11 -11 -11 -11 -10 -10 -11 -11 -11 -11 -12 -12 -11 -11 -11 -11 -11 -11 -11 -11 -11 -10 -10 -10 -10 -9 -8 -8 -9 -8 -9 -8 -8 -8 -8 -8 -7 -7 -7 -7 -7 -7
-16 -15 -15 -15 -14 -12 -12 -11 -11 -11 -11 -11 -11 -10 -10 -11 -10 -11 -11 -11 -11 -12 -12 -11 -11 -11 -11 -11 -11 -11 -11 -11 -11 -10 -10 -10 -10 -10 -8 -8 -8 -8 -8 -8 -8 -8 -8 -7 -7 -7 -7 -7 -7 -7
-16 -15 -15 -15 -13 -12 -12 -11 -11 -11 -11 -11 -11 -11 -11 -11 -12 -11 -12 -12 -12 -12 -12 -10 -10 -11 -11 -11 -11 -11 -11 -11 -11 -9 -10 -10 -10 -9 -9 -9 -8 -8 -7 -7 -7 -7 -8 -8 -7 -8 -8 -8 -8 -8
-15 -15 -15 -14 -13 -12 -12 -11 -11 -11 -11 -11 -11 -11 -12 -12 -12 -12 -12 -12 -12 -11 -11 -10 -10 -11 -11 -11 -11 -11 -10 -10 -10 -9 -10 -9 -9 -8 -8 -8 -8 -8 -7 -8 -8 -8 -8 -8 -7 -8 -8 -8 -8 -8
-15 -15 -14 -13 -12 -12 -12 -11 -11 -11 -11 -11 -11 -11 -12 -12 -12 -12 -12 -12 -11 -11 -10 -10 -10 -10 -11 -11 -11 -10 -10 -9 -9 -9 -9 -9 -7 -8 -8 -8 -8 -8 -8 -8 -8 -8 -8 -8 -8 -8 -8 -8 -9 -9
-14 -13 -13 -12 -12 -12 -12 -12 -12 -11 -11 -11 -12 -13 -12 -12 -12 -11 -11 -10 -10 -10 -10 -10 -10 -10 -10 -10 -10 -9 -9 -9 -9 -9 -9 -8 -8 -8 -8 -8 -8 -8 -8 -8 -8 -8 -8 -9 -9 -9 -9 -10 -10 -11
-13 -12 -12 -12 -11 -12 -11 -11 -12 -11 -12 -13 -12 -12 -11 -11 -10 -10 -10 -10 -9 -9 -10 -10 -9 -9 -9 -9 -9 -9 -9 -9 -9 -9 -8 -8 -8 -8 -9 -9 -9 -9 -9 -9 -9 -9 -10 -10 -11 -11 -11 -12 -12 -12
-12 -12 -11 -11 -11 -11 -11 -11 -12 -11 -12 -12 -11 -11 -10 -10 -10 -10 -10 -9 -9 -9 -9 -9 -10 -9 -9 -9 -8 -8 -9 -8 -8 -8 -8 -8 -8 -9 -9 -9 -9 -9 -9 -10 -10 -10 -11 -11 -12 -12 -13 -13 -13 -14
-11 -11 -11 -11 -11 -11 -11 -11 -12 -12 -12 -11 -10 -10 -9 -10 -9 -9 -9 -9 -9 -9 -9 -9 -9 -9 -9 -8 -8 -8 -8 -8 -8 -8 -8 -9 -9 -9 -9 -9 -10 -10 -11 -11 -12 -12 -13 -13 -13 -14 -14 -14 -14 -14
-11 -11 -11 -11 -10 -11 -11 -12 -12 -12 -11 -10 -10 -9 -9 -9 -9 -9 -9 -9 -10 -10 -10 -10 -9 -9 -9 -9 -9 -9 -8 -8 -8 -8 -9 -9 -9 -10 -10 -11 -11 -12 -13 -13 -13 -14 -14 -14 -14 -14 -15 -15 -15 -15
-11 -11 -11 -11 -11 -11 -12 -12 -12 -11 -10 -10 -9 -10 -9 -9 -9 -9 -9 -10 -9 -10 -10 -10 -9 -9 -9 -9 -8 -9 -8 -8 -9 -9 -10 -10 -10 -11 -12 -12 -13 -13 -14 -14 -15 -15 -15 -15 -15 -15 -15 -15 -16 -16
-10 -10 -11 -11 -11 -11 -12 -12 -11 -10 -10 -10 -9 -10 -10 -10 -10 -10 -10 -10 -10 -10 -10 -10 -9 -9 -9 -9 -9 -9 -9 -9 -9 -10 -11 -11 -12 -12 -13 -14 -14 -14 -14 -15 -15 -15 -15 -15 -16 -16 -16 -16 -16 -16
-10 -11 -11 -12 -11 -12 -12 -12 -12 -10 -9 -9 -10 -9 -9 -9 -9 -9 -9 -10 -10 -10 -11 -10 -10 -10 -9 -9 -9 -9 -9 -10 -10 -11 -12 -12 -13 -13 -14 -14 -14 -14 -14 -15 -15 -15 -15 -16 -16 -16 -16 -17 -17 -17
-11 -11 -11 -11 -12 -12 -11 -10 -10 -10 -10 -10 -9 -9 -9 -9 -9 -9 -9 -10 -10 -10 -11 -10 -10 -10 -10 -10 -10 -10 -10 -11 -11 -12 -12 -13 -13 -13 -14 -14 -14 -15 -15 -15 -15 -16 -16 -17 -17 -17 -17 -18 -18 -19
-11 -11 -11 -11 -11 -11 -10 -10 -10 -9 -9 -9 -9 -9 -9 -9 -9 -9 -10 -10 -11 -10 -11 -11 -10 -10 -10 -10 -10 -11 -11 -12 -12 -12 -13 -13 -13 -14 -14 -14 -15 -15 -15 -16 -16 -17 -17 -18 -18 -18 -19 -19 -19 -20
-11 -11 -11 -11 -11 -11 -10 -10 -10 -10 -10 -9 -9 -9 -9 -10 -10 -10 -10 -10 -10 -10 -11 -11 -11 -11 -11 -11 -11 -12 -12 -12 -13 -13 -13 -14 -14 -14 -15 -15 -15 -16 -16 -17 -17 -17 -18 -18 -18 -19 -19 -20 -20 -20
-11 -11 -11 -11 -11 -10 -10 -10 -10 -10 -10 -9 -10 -9 -10 -10 -10 -11 -10 -10 -10 -10 -11 -11 -11 -11 -11 -11 -12 -12 -12 -13 -13 -13 -14 -14 -14 -14 -15 -15 -16 -16 -17 -17 -18 -18 -19 -19 -19 -20 -20 -20 -21 -21
-11 -11 -11 -11 -10 -10 -10 -10 -9 -10 -10 -9 -10 -10 -10 -10 -11 -11 -10 -10 -10 -10 -10 -11 -11 -11 -12 -12 -12 -13 -13 -13 -14 -14 -14 -14 -15 -15 -16 -16 -17 -17 -18 -18 -19 -19 -19 -20 -20 -20 -20 -21 -21 -21
-11 -11 -10 -10 -10 -10 -10 -10 -10 -10 -10 -10 -10 -10 -10 -10 -10 -10 -9 -9 -9 -10 -11 -11 -12 -12 -12 -12 -13 -13 -13 -14 -14 -14 -14 -15 -15 -16 -17 -17 -18 -18 -19 -19 -19 -19 -20 -20 -20 -20 -21 -21 -21 -22
-11 -11 -10 -10 -10 -10 -11 -10 -10 -10 -11 -11 -10 -10 -10 -10 -9 -9 -9 -9 -9 -10 -11 -12 -12 -13 -13 -13 -13 -13 -13 -13 -14 -14 -15 -15 -16 -17 -17 -18 -18 -19 -19 -19 -19 -20 -20 -20 -21 -21 -21 -21 -22 -22
-11 -11 -11 -11 -11 -12 -12 -12 -12 -12 -11 -11 -10 -10 -10 -9 -9 -9 -9 -10 -10 -11 -12 -12 -13 -13 -13 -13 -13 -13 -13 -14 -14 -15 -16 -16 -17 -17 -18 -19 -19 -19 -19 -19 -20 -20 -20 -21 -21 -22 -22 -22 -22 -23
-11 -11 -11 -11 -12 -13 -14 -13 -13 -13 -12 -11 -11 -10 -9 -9 -9 -9 -9 -10 -11 -12 -13 -13 -13 -13 -13 -13 -13 -14 -14 -15 -15 -16 -16 -17 -18 -18 -19 -19 -19 -19 -20 -20 -20 -21 -21 -21 -22 -22 -22 -23 -23 -23
-11 -11 -11 -12 -13 -14 -14 -14 -14 -13 -13 -12 -11 -11 -10 -9 -9 -10 -11 -11 -12 -12 -12 -13 -13 -13 -13 -14 -14 -14 -15 -15 -16 -16 -17 -18 -18 -19 -19 -19 -20 -20 -20 -21 -21 -22 -22 -22 -23 -23 -23 -23 -24 -24
-11 -11 -11 -12 -12 -13 -13 -13 -13 -12 -12 -11 -11 -10 -10 -9 -10 -11 -11 -11 -11 -12 -13 -13 -13 -13 -14 -14 -14 -15 -15 -16 -16 -17 -18 -18 -19 -19 -19 -20 -20 -20 -21 -21 -22 -22 -23 -23 -23 -23 -24 -24 -24 -24
-11 -11 -11 -11 -12 -12 -12 -12 -11 -11 -10 -10 -10 -10 -9 -9 -10 -11 -11 -11 -12 -12 -12 -13 -14 -14 -14 -14 -15 -16 -16 -17 -17 -18 -18 -19 -19 -20 -20 -20 -21 -21 -22 -22 -22 -23 -23 -23 -24 -24 -24 -24 -24 -25
-11 -12 -11 -12 -11 -11 -11 -11 -10 -10 -10 -10 -10 -10 -10 -10 -11 -11 -11 -12 -12 -12 -13 -13 -14 -14 -15 -15 -16 -16 -17 -17 -18 -18 -19 -19 -20 -20 -20 -21 -21 -22 -22 -23 -23 -23 -23 -24 -24 -24 -24 -25 -25 -25
Height
2909 2913 2918 2923 2927 2932 2937 2942 2946 2949 2952 2955 2958 2960 2962 2964 2966 2969 2972 2972 2975 2975 2977 2976 2978 2979 2980 2980 2980 2980 2979 2977 2974 2970 2966 2959 2960 2964 2966 2967 2968 2971 2973 2974 2977 2977 2974 2970 2970 2971 2971 2969 2968 2967
2905 2908 2912 2916 2921 2926 2930 2935 2940 2944 2948 2951 2953 2956 2959 2962 2964 2966 2969 2971 2972 2973 2975 2975 2976 2976 2977 2977 2978 2978 2979 2977 2976 2974 2971 2967 2966 2966 2967 2968 2969 2972 2972 2974 2974 2970 2968 2969 2969 2969 2968 2967 2967 2966
2898 2902 2906 2911 2915 2920 2925 2929 2934 2939 2942 2945 2949 2952 2955 2958 2961 2963 2966 2968 2969 2971 2972 2972 2973 2973 2973 2975 2976 2977 2978 2977 2976 2975 2973 2971 2970 2969 2968 2968 2968 2968 2968 2968 2968 2965 2965 2966 2967 2967 2967 2966 2965 2965
2890 2895 2900 2905 2910 2915 2919 2924 2929 2933 2937 2941 2945 2948 2951 2955 2958 2961 2962 2966 2968 2968 2967 2971 2970 2970 2971 2972 2974 2975 2976 2975 2976 2975 2974 2973 2971 2970 2968 2967 2966 2966 2966 2966 2964 2963 2963 2963 2965 2966 2966 2965 2965 2965
2884 2888 2893 2899 2905 2909 2914 2919 2924 2928 2932 2936 2941 2944 2948 2951 2955 2958 2958 2959 2964 2968 2966 2967 2967 2968 2968 2970 2971 2972 2974 2974 2974 2974 2973 2973 2971 2970 2967 2965 2965 2964 2963 2963 2962 2962 2964 2964 2964 2965 2965 2966 2965 2966
2878 2883 2887 2893 2899 2905 2910 2915 2919 2924 2928 2933 2937 2941 2945 2949 2952 2953 2954 2955 2956 2960 2961 2962 2964 2965 2965 2967 2969 2969 2971 2972 2972 2972 2972 2971 2971 2970 2968 2966 2964 2962 2960 2960 2961 2962 2963 2964 2964 2964 2965 2965 2965 2965
2872 2878 2883 2888 2894 2900 2905 2911 2916 2920 2925 2930 2934 2938 2942 2946 2947 2949 2948 2949 2952 2952 2955 2960 2960 2961 2962 2964 2966 2967 2968 2969 2970 2970 2969 2969 2969 2968 2966 2965 2963 2961 2961 2961 2962 2963 2964 2964 2965 2965 2964 2964 2964 2964
2866 2873 2879 2884 2890 2895 2900 2906 2913 2918 2922 2928 2932 2935 2939 2942 2944 2944 2945 2946 2947 2949 2954 2957 2958 2958 2959 2961 2963 2964 2966 2967 2967 2967 2966 2966 2967 2966 2964 2961 2961 2961 2961 2962 2962 2963 2964 2964 2964 2964 2964 2963 2963 2963
2861 2868 2875 2881 2885 2891 2898 2903 2911 2916 2922 2925 2930 2932 2934 2936 2939 2940 2941 2943 2944 2950 2952 2953 2954 2956 2957 2958 2960 2962 2963 2964 2965 2963 2963 2965 2963 2962 2961 2959 2959 2960 2961 2961 2962 2963 2963 2963 2962 2962 2962 2961 2960 2960
2857 2864 2870 2876 2882 2889 2895 2900 2909 2914 2918 2921 2927 2931 2932 2934 2937 2940 2941 2943 2946 2947 2949 2949 2952 2953 2956 2956 2958 2961 2962 2962 2960 2960 2960 2959 2958 2958 2958 2960 2959 2960 2960 2961 2961 2961 2960 2959 2958 2957 2957 2957 2957 2956
2853 2860 2866 2873 2880 2887 2893 2899 2906 2911 2916 2921 2923 2927 2931 2934 2937 2939 2941 2943 2945 2946 2946 2947 2949 2951 2953 2954 2956 2959 2959 2958 2957 2957 2957 2956 2954 2954 2954 2955 2956 2957 2957 2958 2958 2958 2958 2957 2956 2954 2953 2953 2953 2952
2850 2856 2863 2871 2878 2885 2892 2898 2905 2909 2915 2920 2924 2927 2931 2936 2938 2939 2940 2942 2942 2943 2942 2944 2946 2948 2950 2951 2954 2955 2955 2955 2953 2954 2955 2953 2952 2951 2951 2952 2952 2953 2954 2954 2953 2953 2952 2952 2951 2951 2950 2949 2948 2948
2847 2854 2861 2868 2876 2883 2891 2897 2904 2910 2915 2920 2924 2928 2932 2935 2935 2935 2936 2937 2937 2938 2940 2941 2943 2945 2948 2949 2950 2950 2951 2952 2952 2952 2951 2949 2949 2949 2950 2950 2951 2951 2950 2950 2950 2950 2949 2948 2948 2947 2947 2946 2945 2944
2846 2853 2860 2868 2875 2882 2891 2897 2904 2910 2915 2919 2923 2927 2929 2930 2930 2931 2933 2935 2937 2938 2939 2941 2943 2944 2946 2947 2947 2948 2949 2949 2949 2949 2948 2947 2947 2947 2947 2947 2947 2948 2948 2947 2947 2947 2946 2946 2945 2945 2944 2944 2944 2943
2847 2854 2862 2869 2875 2883 2891 2897 2905 2911 2915 2920 2923 2925 2925 2926 2928 2930 2932 2935 2937 2938 2939 2941 2943 2944 2945 2946 2946 2947 2947 2946 2946 2945 2945 2945 2945 2945 2946 2946 2946 2946 2946 2945 2945 2944 2943 2943 2943 2943 2942 2942 2942 2942
2850 2857 2863 2870 2877 2885 2892 2899 2905 2911 2916 2919 2921 2922 2924 2925 2927 2929 2931 2934 2936 2938 2940 2942 2943 2944 2944 2945 2945 2944 2945 2945 2945 2945 2945 2946 2946 2946 2946 2945 2944 2943 2943 2943 2943 2943 2943 2943 2943 2943 2943 2943 2943 2943
2853 2859 2866 2873 2880 2888 2895 2902 2908 2914 2917 2919 2920 2921 2923 2924 2926 2928 2930 2933 2935 2938 2940 2942 2942 2943 2943 2943 2943 2943 2944 2945 2944 2944 2944 2944 2944 2944 2944 2943 2943 2943 2942 2942 2942 2942 2943 2943 2943 2942 2942 2941 2940 2939
2856 2862 2870 2876 2883 2891 2898 2904 2910 2914 2916 2918 2920 2921 2922 2924 2925 2927 2929 2932 2935 2937 2940 2941 2942 2942 2942 2943 2943 2944 2943 2942 2942 2942 2942 2942 2942 2942 2942 2942 2942 2942 2942 2943 2943 2943 2943 2943 2942 2942 2941 2939 2938 2936
2862 2868 2875 2883 2890 2895 2901 2909 2911 2913 2915 2918 2919 2920 2921 2923 2925 2927 2928 2931 2933 2936 2938 2940 2941 2941 2941 2942 2942 2942 2942 2941 2940 2940 2939 2939 2939 2940 2941 2942 2942 2943 2943 2943 2943 2943 2942 2941 2940 2938 2936 2935 2933 2930
2870 2876 2882 2888 2896 2900 2905 2908 2911 2913 2915 2918 2919 2920 2922 2923 2925 2926 2928 2929 2931 2934 2936 2938 2939 2940 2941 2941 2941 2941 2940 2939 2938 2938 2938 2938 2939 2940 2940 2941 2941 2942 2942 2941 2940 2939 2938 2936 2935 2933 2931 2928 2926 2923
2877 2882 2888 2894 2900 2905 2907 2909 2912 2914 2916 2918 2919 2921 2922 2923 2924 2925 2926 2928 2930 2931 2933 2935 2937 2938 2939 2939 2938 2937 2937 2937 2937 2937 2938 2939 2940 2940 2941 2940 2940 2939 2939 2937 2936 2934 2933 2931 2929 2927 2924 2922 2919 2917
2882 2888 2893 2898 2903 2906 2909 2910 2912 2914 2916 2917 2918 2919 2920 2921 2922 2922 2924 2925 2927 2929 2931 2933 2934 2935 2935 2936 2935 2935 2936 2936 2937 2938 2939 2940 2940 2940 2939 2939 2938 2937 2935 2934 2932 2930 2928 2926 2924 2921 2918 2915 2913 2910
2890 2895 2899 2902 2906 2908 2909 2910 2912 2913 2915 2915 2916 2917 2917 2917 2918 2920 2921 2922 2924 2926 2928 2929 2931 2932 2933 2933 2933 2934 2935 2936 2937 2938 2938 2938 2938 2937 2936 2936 2934 2933 2931 2929 2927 2925 2923 2921 2918 2915 2913 2910 2908 2905
2895 2898 2901 2904 2905 2905 2907 2907 2909 2910 2912 2913 2913 2914 2914 2915 2916 2917 2918 2920 2922 2923 2925 2927 2928 2929 2930 2931 2933 2934 2935 2936 2936 2936 2936 2936 2935 2935 2934 2932 2931 2929 2927 2925 2923 2921 2918 2916 2913 2911 2908 2905 2903 2901
2898 2900 2901 2900 2900 2902 2903 2904 2905 2907 2908 2909 2911 2912 2912 2913 2914 2915 2916 2918 2919 2921 2922 2924 2925 2927 2929 2931 2932 2933 2934 2935 2935 2935 2934 2934 2933 2932 2930 2929 2927 2925 2923 2921 2918 2916 2913 2911 2908 2905 2903 2900 2898 2895
2894 2895 2896 2895 2896 2898 2899 2900 2902 2904 2905 2907 2908 2909 2910 2911 2912 2912 2912 2914 2916 2917 2919 2922 2924 2926 2928 2930 2931 2932 2933 2933 2933 2933 2932 2931 2930 2928 2927 2925 2923 2921 2919 2916 2914 2911 2908 2905 2902 2900 2897 2894 2892 2890
2889 2890 2890 2891 2893 2894 2895 2896 2898 2900 2901 2904 2905 2906 2908 2908 2907 2908 2908 2910 2912 2914 2916 2918 2921 2924 2927 2929 2930 2930 2931 2931 2931 2931 2929 2928 2926 2924 2922 2920 2918 2916 2913 2911 2908 2905 2903 2900 2897 2894 2892 2889 2886 2884
2885 2886 2887 2888 2888 2889 2891 2892 2894 2896 2898 2899 2901 2902 2903 2904 2904 2904 2905 2906 2909 2912 2916 2919 2922 2924 2926 2927 2928 2928 2929 2928 2928 2927 2925 2924 2922 2920 2918 2916 2913 2911 2909 2906 2903 2900 2897 2895 2892 2889 2886 2884 2881 2878
2882 2883 2884 2883 2884 2885 2886 2887 2889 2891 2893 2895 2896 2898 2900 2901 2902 2902 2903 2906 2909 2912 2916 2919 2921 2923 2924 2925 2926 2926 2926 2925 2924 2923 2921 2919 2918 2916 2914 2912 2909 2907 2904 2901 2898 2895 2893 2890 2887 2884 2882 2879 2876 2873
2880 2880 2880 2879 2880 2881 2882 2883 2885 2888 2890 2892 2895 2897 2898 2900 2900 2901 2903 2906 2909 2911 2914 2917 2919 2921 2922 2923 2923 2923 2923 2922 2920 2919 2917 2915 2913 2911 2909 2907 2904 2902 2899 2896 2893 2891 2888 2885 2882 2879 2876 2873 2870 2868
2875 2877 2877 2877 2878 2880 2880 2882 2884 2886 2888 2890 2892 2895 2896 2897 2897 2899 2902 2905 2908 2911 2914 2916 2917 2919 2920 2920 2920 2920 2919 2918 2916 2915 2913 2911 2909 2907 2905 2902 2900 2897 2894 2891 2888 2885 2883 2880 2877 2874 2871 2868 2865 2862
2873 2874 2875 2876 2878 2880 2881 2882 2883 2884 2886 2888 2891 2893 2894 2894 2896 2899 2902 2905 2907 2910 2912 2914 2915 2916 2917 2917 2917 2916 2915 2914 2912 2911 2909 2907 2905 2903 2901 2898 2895 2892 2890 2887 2884 2881 2878 2875 2872 2869 2866 2863 2860 2857
2869 2870 2872 2873 2875 2876 2878 2880 2881 2883 2885 2887 2889 2891 2891 2893 2894 2898 2901 2903 2906 2909 2911 2912 2913 2914 2914 2914 2914 2913 2912 2910 2909 2907 2905 2904 2902 2899 2897 2894 2891 2888 2885 2883 2880 2876 2873 2870 2867 2864 2861 2858 2854 2850
Wind_Speed
27 26 24 24 25 24 23 22 21 18 15 15 14 13 12 12 10 8 7 8 8 9 8 9 8 8 8 7 9 9 11 11 12 15 10 11 9 4 4 4 4 4 5 7 8 7 7 5 3 3 7 12 15 15
23 25 25 24 25 24 24 22 20 18 17 16 16 15 16 17 16 13 11 9 9 9 8 7 9 8 11 11 9 6 7 11 9 12 17 8 7 4 2 4 5 3 6 4 7 5 10 9 4 5 9 8 9 11
31 25 23 21 24 25 25 24 21 20 19 17 16 15 16 19 19 17 11 12 12 13 10 4 8 7 12 9 8 7 3 7 8 6 14 7 5 5 2 1 3 4 9 12 13 19 27 18 15 9 7 9 10 10
33 34 28 25 22 24 26 24 22 21 19 18 16 15 16 19 18 19 19 14 15 16 20 14 9 11 10 13 11 10 6 8 7 4 6 6 6 5 3 5 9 11 10 11 4 2 4 8 5 4 5 7 7 4
25 28 32 29 26 24 25 24 23 21 19 17 16 15 16 16 17 19 19 22 18 17 17 8 9 14 11 8 10 11 10 9 9 8 6 8 5 7 7 6 7 10 8 5 6 6 5 4 4 3 1 2 4 1
27 27 28 29 27 24 24 24 23 20 18 17 17 16 16 16 14 18 24 28 27 29 33 26 15 14 12 10 10 12 12 12 11 9 8 8 2 6 5 7 9 7 8 7 3 4 4 7 6 5 3 3 2 1
34 28 21 25 26 26 23 23 20 19 17 17 16 16 14 17 16 22 31 27 25 32 32 18 14 13 12 12 13 13 13 11 11 12 16 14 7 6 9 12 14 6 3 9 11 10 5 4 2 1 1 1 3 5
31 29 23 20 22 25 23 20 19 18 19 17 14 13 15 17 16 17 19 19 13 11 24 8 6 7 10 12 13 13 15 14 15 16 17 10 7 7 6 10 8 6 5 5 4 1 3 3 2 4 5 6 7 9
26 24 23 23 24 25 23 20 20 21 20 16 19 8 16 16 15 14 13 11 15 20 10 10 9 5 7 11 12 13 14 16 18 19 17 11 10 8 11 13 6 6 6 4 3 4 6 7 8 9 12 12 13 14
29 25 25 24 25 23 23 23 24 23 16 18 16 14 10 9 8 8 10 14 16 18 15 11 12 11 5 9 12 11 9 10 8 9 10 15 20 18 15 11 7 8 9 8 9 12 13 14 17 16 16 16 15 14
29 27 26 25 25 25 25 27 24 26 23 21 26 17 15 15 12 8 7 8 9 7 10 13 14 13 11 10 15 10 5 6 5 6 7 4 7 10 12 15 14 13 15 16 16 17 17 16 16 16 16 16 14 13
28 26 26 27 27 28 30 23 23 17 22 21 22 18 21 16 6 4 8 6 7 7 6 10 11 11 14 13 12 11 8 7 4 6 7 4 8 8 8 10 11 12 13 13 14 14 13 12 12 13 13 14 13 13
26 28 28 28 30 34 34 23 25 24 23 19 20 22 15 7 8 7 9 8 6 7 8 6 8 9 13 8 7 8 6 5 2 6 4 7 7 5 4 6 8 8 9 11 12 14 15 16 16 15 14 12 10 8
28 28 29 31 34 30 38 30 38 33 25 26 18 16 10 6 9 8 11 8 5 8 6 9 6 6 6 7 4 4 5 4 4 5 4 4 4 4 4 5 6 8 9 11 13 13 12 11 10 9 8 7 7 6
30 30 32 30 29 35 33 25 40 29 27 16 8 9 9 7 7 10 11 8 9 7 8 8 5 2 4 2 2 3 4 3 4 3 3 2 2 3 5 7 9 9 8 7 8 8 8 7 6 5 4 4 4 4
29 27 30 34 34 34 29 39 32 29 19 14 8 10 7 9 9 12 12 13 11 13 9 8 3 2 4 3 3 3 2 3 2 3 3 4 5 6 9 9 7 6 5 4 3 2 3 2 2 2 2 4 5 7
35 33 30 32 31 32 39 32 30 25 11 8 6 8 5 9 10 13 13 16 14 13 11 5 3 3 2 2 2 1 2 5 6 6 6 7 8 7 6 5 4 3 2 1 1 2 1 1 3 5 7 8 10 12
28 31 36 37 37 38 34 35 28 8 10 9 7 4 7 7 7 10 12 15 17 15 12 8 2 4 2 1 1 2 6 6 5 6 7 7 6 4 3 2 2 3 3 3 2 1 3 5 7 9 12 14 15 16
38 39 34 37 36 37 38 32 12 10 9 9 4 2 4 7 8 9 14 16 19 19 14 11 4 3 3 6 5 3 5 7 6 5 5 4 3 2 3 5 6 4 2 2 3 6 9 11 13 15 16 17 17 17
35 35 36 36 39 37 20 10 6 7 8 12 4 6 5 5 5 6 9 13 13 15 15 12 9 5 4 4 6 8 9 7 4 1 1 3 5 5 4 2 0 3 5 8 10 13 15 16 16 17 17 17 18 19
33 33 32 38 36 19 6 7 11 5 5 2 1 3 3 4 5 6 9 12 14 15 15 14 10 8 7 8 8 7 5 2 4 7 7 5 4 2 1 3 6 8 11 13 15 16 16 17 18 19 19 19 19 19
28 31 35 33 28 20 6 4 7 11 4 5 6 7 8 8 7 7 7 12 13 13 13 11 9 8 8 7 6 4 5 7 7 6 4 2 1 3 5 8 9 11 13 14 15 17 17 18 18 18 19 19 19 18
28 28 27 24 16 13 12 12 7 6 6 5 8 10 10 9 8 7 7 11 12 11 10 11 10 8 7 5 5 7 8 7 5 3 2 3 4 6 8 10 11 13 14 16 17 18 18 18 19 19 19 18 18 17
22 23 19 13 13 10 12 12 13 13 13 11 10 8 8 8 7 10 11 8 7 11 11 9 9 7 7 8 10 9 6 4 3 2 3 5 7 9 11 12 14 15 16 17 17 17 17 18 18 18 18 17 17 17
20 16 9 12 12 14 18 17 14 12 13 10 10 8 4 7 9 9 9 11 9 8 10 11 10 11 12 12 9 7 5 4 3 4 6 7 9 11 13 14 15 16 16 16 17 18 19 19 19 19 18 18 17 17
14 12 10 9 14 13 13 13 14 15 12 12 9 7 7 7 7 6 9 12 11 11 11 11 11 11 12 10 8 6 5 4 6 7 8 9 11 13 14 16 16 16 16 17 18 19 19 19 19 19 19 19 19 19
7 7 12 13 11 11 14 16 14 14 13 10 11 12 7 6 7 8 10 13 16 16 17 18 17 15 12 9 7 6 5 6 8 9 10 11 13 15 16 16 16 17 18 19 19 20 20 20 20 20 20 20 20 20
9 8 9 10 13 15 15 13 14 14 15 13 14 12 7 7 5 8 11 16 18 16 15 14 13 11 9 7 6 6 7 8 9 10 12 14 15 15 15 15 17 18 19 20 20 20 20 20 20 20 20 20 20 20
10 10 11 12 13 15 15 16 16 17 16 17 16 15 10 7 7 7 13 17 18 19 18 15 13 10 8 7 6 7 8 9 11 12 14 15 15 15 15 16 18 19 19 20 20 20 20 20 20 20 19 19 20 20
12 9 10 10 12 13 13 13 16 15 15 16 15 14 12 9 7 12 17 19 20 20 18 15 12 10 8 7 7 8 9 10 12 14 15 15 16 17 17 18 19 20 20 20 20 20 20 19 20 20 20 21 20 20
11 10 9 8 8 7 9 11 11 12 14 14 13 15 11 9 9 17 20 20 19 16 14 12 10 8 8 8 8 9 10 12 13 15 15 16 16 17 18 19 20 20 21 21 20 20 20 20 21 21 21 20 20 21
10 11 11 9 10 13 9 8 6 10 15 16 15 11 7 9 13 17 19 18 17 16 12 10 9 8 8 9 9 10 11 13 14 15 15 16 17 18 19 19 20 20 19 19 20 20 21 21 21 20 20 21 22 23
12 13 12 12 11 13 14 11 9 9 13 15 13 7 6 10 16 17 18 17 16 13 11 10 9 8 9 9 10 11 12 14 14 15 15 16 17 18 18 19 19 19 19 20 21 21 21 20 20 21 22 23 24 25
Wind_Direction
233 234 228 225 223 221 225 227 230 231 235 238 239 238 233 226 215 186 202 231 260 293 306 292 279 264 260 265 303 318 337 348 346 2 340 356 63 124 158 132 165 176 192 207 204 217 253 286 324 253 262 272 291 316
231 234 223 220 219 218 217 220 226 230 232 235 233 234 229 224 224 218 217 236 258 277 288 311 302 286 259 255 268 295 327 348 340 354 353 353 13 28 75 164 210 208 223 230 224 249 270 271 259 297 312 333 323 334
223 223 222 219 217 217 214 215 218 222 228 232 231 233 225 220 219 226 224 227 251 275 299 238 358 299 262 242 234 259 290 320 335 355 348 354 338 7 344 273 273 285 271 277 277 257 247 261 280 295 295 302 322 326
224 223 226 220 223 219 216 215 214 219 223 227 227 225 221 219 219 232 250 249 252 270 282 296 290 287 270 251 244 267 240 255 297 331 344 348 341 346 331 298 289 294 285 281 192 222 274 255 270 281 304 321 299 225
226 225 222 222 223 223 219 214 214 218 220 218 216 212 210 214 222 232 245 256 251 252 265 268 286 317 285 259 230 242 221 236 264 293 285 296 320 342 338 336 317 300 276 242 193 208 238 292 227 182 137 161 140 54
218 220 219 219 222 219 220 215 214 216 211 210 204 207 211 214 224 250 243 248 244 251 252 256 275 280 269 240 232 221 216 226 245 266 283 287 290 320 320 305 316 296 289 206 168 152 155 132 115 123 117 151 123 125
215 220 224 216 212 213 210 216 214 205 203 195 200 208 216 213 235 247 257 260 256 248 240 249 271 236 250 239 226 222 223 233 246 261 267 269 283 290 282 268 299 269 139 129 127 126 109 114 112 118 189 270 311 295
218 216 212 203 203 208 204 203 208 196 185 185 187 194 204 217 239 250 263 271 268 215 216 225 226 238 237 229 225 226 233 242 254 257 262 272 269 264 269 285 298 219 162 146 174 173 301 312 288 279 292 308 304 303
207 195 197 204 209 203 197 185 196 182 174 176 187 228 225 213 240 254 248 219 165 183 198 216 207 217 229 226 225 224 237 251 254 255 259 258 255 231 243 271 258 228 238 229 242 275 286 301 309 294 283 291 295 296
191 192 197 205 202 190 187 177 182 177 162 206 204 214 219 209 202 191 146 158 175 195 210 213 208 230 233 219 216 199 220 233 247 257 244 240 246 252 260 258 272 277 251 249 281 288 293 299 301 300 293 293 303 297
188 197 204 196 186 182 178 173 177 176 185 198 199 177 176 164 154 155 154 159 179 202 224 229 229 235 231 226 201 205 228 215 231 227 201 240 261 260 248 248 254 258 262 270 280 285 287 287 290 293 294 296 299 300
198 199 187 182 179 176 173 159 173 181 174 178 197 190 161 150 155 170 173 183 192 204 209 197 206 211 199 191 188 220 226 216 250 191 189 239 253 249 245 253 262 267 271 275 277 280 280 284 287 286 289 291 292 293
184 181 179 178 175 173 173 162 175 179 185 179 163 152 160 172 192 189 185 186 196 188 175 172 165 187 174 198 224 189 202 210 191 194 223 242 250 243 237 246 256 264 271 276 277 277 278 280 281 284 285 284 284 288
174 175 174 170 171 173 168 171 181 190 168 157 154 163 173 193 200 191 185 183 181 150 165 177 162 146 164 187 184 187 195 189 210 222 230 236 237 246 259 279 290 292 290 288 286 285 285 284 283 284 288 294 302 307
163 162 165 169 176 170 167 173 182 182 155 153 153 177 209 201 188 179 178 181 169 185 176 169 196 222 186 205 226 198 187 220 232 245 275 284 289 313 310 307 302 295 287 281 279 278 278 282 285 290 292 298 307 313
156 157 164 153 160 164 165 176 173 163 160 162 166 190 190 189 184 181 181 182 181 176 168 184 185 166 196 229 213 212 208 229 285 307 294 300 299 291 292 289 284 284 285 285 276 262 257 260 270 283 292 293 293 292
154 160 160 157 156 165 168 168 157 156 160 183 191 195 205 184 183 184 189 187 176 170 182 184 209 216 224 237 233 234 269 300 298 289 280 284 284 285 286 285 285 278 256 211 177 163 171 275 296 300 301 299 296 297
161 159 157 152 160 163 160 158 156 165 169 169 148 107 164 173 187 197 203 187 181 189 197 207 225 221 231 241 259 289 318 310 297 292 292 289 280 268 252 224 189 167 152 149 162 240 282 292 295 296 297 298 298 297
148 146 151 159 162 155 149 155 143 148 159 175 185 311 182 191 191 190 185 188 198 204 211 218 234 240 245 273 284 295 330 322 305 289 269 257 242 196 158 153 150 152 168 239 281 291 296 298 299 300 302 302 302 301
149 152 158 159 160 160 159 187 152 115 137 194 198 160 142 150 177 196 203 205 206 207 216 216 222 234 269 295 302 303 306 304 296 293 155 139 138 129 124 115 20 315 306 301 300 301 304 307 309 310 310 309 307 306
148 152 157 162 162 158 154 172 184 181 242 265 179 219 245 254 252 242 226 217 213 212 218 225 233 252 282 295 291 286 280 232 132 120 118 116 111 105 323 307 302 303 306 307 309 311 312 314 315 313 310 309 308 306
154 157 157 165 171 175 170 177 207 221 235 256 282 287 282 275 273 257 238 216 220 226 228 232 236 249 266 275 273 238 163 134 128 132 137 155 247 284 294 301 306 307 309 311 312 312 313 313 315 316 316 315 314 312
150 157 168 178 191 205 223 213 212 222 228 257 282 278 272 267 252 232 211 218 220 222 222 225 233 247 251 239 193 160 149 152 157 171 218 269 292 304 309 312 312 312 312 312 313 315 317 319 319 319 318 316 313 311
163 165 177 191 204 212 230 237 248 252 257 264 262 264 265 242 221 209 215 207 204 213 217 220 221 224 216 186 168 169 172 182 206 244 282 300 308 311 311 311 311 311 312 312 314 316 318 318 319 318 317 314 312 310
190 193 213 225 227 231 238 251 252 247 244 245 240 238 253 217 209 215 219 217 216 210 208 211 210 196 175 177 180 184 201 226 254 287 299 303 307 308 309 310 311 312 313 315 317 318 317 318 317 316 315 315 313 311
196 203 208 211 213 216 221 226 231 233 237 231 229 228 226 216 211 224 219 211 204 205 200 198 195 191 183 181 189 210 233 265 288 294 300 305 308 310 310 311 313 314 316 317 317 317 316 316 316 315 314 314 312 311
211 209 217 223 221 221 225 226 225 219 217 215 224 216 209 208 218 222 207 204 201 197 195 189 183 179 183 195 212 230 260 279 289 297 306 310 312 313 314 315 317 317 318 317 317 317 316 316 316 315 314 313 311 311
215 224 237 244 238 230 225 223 222 217 215 212 210 194 201 210 230 222 215 199 194 190 183 177 177 184 196 211 229 254 273 288 297 306 311 314 316 317 317 317 316 317 317 318 317 317 317 317 316 314 313 313 312 311
225 243 255 247 228 219 225 225 218 212 210 206 206 202 206 221 244 225 191 183 180 169 170 180 190 201 213 230 252 271 284 294 306 312 316 318 320 319 318 318 318 317 318 317 318 318 318 317 316 316 316 315 314 313
241 255 252 240 228 227 229 217 205 204 209 205 206 207 214 231 247 197 185 181 176 180 187 192 201 211 225 245 264 279 292 304 311 315 318 320 320 320 321 321 320 320 320 320 321 321 320 320 319 319 318 318 317 317
232 233 236 229 216 188 172 174 186 201 200 201 202 205 220 238 220 196 190 189 188 186 188 198 211 224 239 258 275 288 299 309 314 318 319 319 320 321 321 321 321 321 322 323 323 323 323 322 321 321 321 320 319 319
229 224 225 225 211 201 201 211 220 215 209 209 196 207 231 217 201 195 196 195 195 198 204 208 217 232 250 267 280 293 305 314 317 318 318 319 320 321 321 321 321 322 323 323 324 325 324 324 324 323 322 320 319 318
229 225 226 226 221 219 219 225 206 194 192 192 200 215 213 194 189 192 194 198 203 206 209 217 231 246 260 274 290 303 311 313 314 316 318 320 320 321 321 322 323 324 326 326 326 326 326 326 325 324 322 321 321 320